Regional Weather Roundup
Issued by NWS

Home | Current Version | Previous Version | Text Only | Print | Product List | Glossary On
Versions: 1 2 3 4 5 6 7 8 9 10 11 12 13 14 15 16 17 18 19 20 21 22 23 24 25 26 27 28
000
ASUS44 KBMX 240410
RWRAL

ALABAMA REGIONAL WEATHER ROUNDUP
NATIONAL WEATHER SERVICE BIRMINGHAM AL
1100 PM CDT WED APR 23 2014

NOTE: "FAIR" INDICATES FEW OR NO CLOUDS BELOW 12,000 FEET
WITH NO SIGNIFICANT WEATHER AND/OR OBSTRUCTIONS TO VISIBILITY.

THE REMARK "TC" DENOTES TEMPERATURE IN DEGREES CELSIUS.

ALZ001>011-014-016>018-020-240500-
NORTH ALABAMA

CITY           SKY/WX    TMP DP  RH WIND       PRES   REMARKS
MUSCLE SHOALS  CLEAR     58  40  51 CALM      29.98S
HUNTSVILLE     CLEAR     55  40  56 CALM      29.97F
DECATUR        CLEAR     51  43  74 NE6       29.98F
HALEYVILLE     FAIR      47  44  89 CALM      30.00S
GADSDEN        CLEAR     50  43  76 CALM      29.96F
$$

ALZ012-013-022-023-030>036-040>044-240500-
WEST CENTRAL ALABAMA

CITY           SKY/WX    TMP DP  RH WIND       PRES   REMARKS
TUSCALOOSA     CLEAR     56  52  86 CALM      29.94F
$$

ALZ015-024>027-033>036-040>044-240500-
CENTRAL ALABAMA

CITY           SKY/WX    TMP DP  RH WIND       PRES   REMARKS
BIRMINGHAM     CLEAR     56  45  66 CALM      29.99S
MONTGOMERY     CLEAR     64  53  67 CALM      29.94S
SHELBY CO ARPT CLEAR     59  51  75 CALM      29.96F
MAXWELL AFB    CLEAR     60  58  92 SW2       29.94S
GREENVILLE     FAIR      59  57  93 N3        29.93F
$$

ALZ019-021-028-029-037-038-045>048-240500-
EAST CENTRAL ALABAMA

CITY           SKY/WX    TMP DP  RH WIND       PRES   REMARKS
ANNISTON       CLEAR     54  47  77 E3        29.97S
ALEXANDER CITY CLEAR     62  44  51 N3        29.96F
AUBURN         CLEAR     61  41  48 N7        29.99R
$$

ALZ051>064-240500-
SOUTHWEST ALABAMA

CITY           SKY/WX    TMP DP  RH WIND       PRES   REMARKS
MOBILE         PTCLDY    66  65  96 CALM      29.94S
BROOKLEY FIELD CLEAR     65  63  93 CALM      29.95R
EVERGREEN      PTCLDY    63  59  87 CALM      29.95R
$$

ALZ049-050-065>069-240500-
SOUTHEAST ALABAMA

CITY           SKY/WX    TMP DP  RH WIND       PRES   REMARKS
DOTHAN         CLEAR     63  59  87 CALM      29.97S
OZARK          CLEAR     66  60  83 S6        29.94R
TROY           CLEAR     58  56  93 CALM      29.95S
EUFAULA        FAIR      58  56  93 CALM      29.94R
$$



USA.gov is the U.S. government's official web portal to all federal, state and local government web resources and services.